Location: Sternwarte_Laufen
(47.9344°N, 12.9346°E)
Time: 15:51:34
(UTC+02:00)

ISS - Pass Details

Date: 18 July 2018
Orbit: 402 x 408 km, 51.6° (Epoch: 21 July)

Event Time Altitude Azimuth Distance (km) Brightness Sun altitude
Rises 22:17:22 0° 199° (SSW) 2,307 -0.3 -10.5°
Enters shadow 22:17:27 - 199° (SSW) 2,276 -0.3 -10.5°
Exits shadow 22:25:48 - 81° (E) 1,976 -0.6 -11.5°
Sets 22:26:47 0° 75° (ENE) 2,329 -0.2 -11.6°
